Flag for Paraguay Weather past 2 weeks in Ciudad del Este, Paraguay

Now
45 °F

Clear.


Feels Like: 45 °F
Forecast: 42 / 72 °F
Wind: No wind

Location: Foz Do Iguacu Aeroporto

Current Time: Aug 28, 2014 at 1:31:25 AM

Latest Report: Aug 28, 2014 at 1:00 AM


Visibility: 10 mi

Pressure: 30.07 "Hg

Humidity: 93%

Dew point: 43 °F

Location of Ciudad del EsteLocation

Historic Weather in Ciudad del Este — Graph

°F

Ciudad del Este temperature yesterday

Maximum temperature yesterday: 66 °F (at 2:00 PM)
Minimum temperature yesterday: 37 °F (at 6:00 AM)
Average temperature yesterday: 53 °F

Past Weeks' High & Low Weather Summary

 TemperatureHumidityPressure
High93 °F (Aug 24, 2:00 PM)100% (Aug 14, 3:00 AM)30.36 "Hg (Aug 14, 3:00 AM)
Low36 °F (Aug 14, 5:00 AM)28% (Aug 24, 2:00 PM)29.68 "Hg (Aug 24, 2:00 PM)
Average67 °F68%30.07 "Hg
* Reported Midnight between Aug 12 and Aug 13 — Midnight between Aug 27 and Aug 28, Ciudad del Este, Weather by CustomWeather, © 2014

Note: Actual official high and low records may vary slightly from our data, if they occured in-between our weather recording intervals... More about our weather records

Advertising

Ciudad del Este weather history for previous 24 hours

 ConditionsComfort  
Time TempWeatherWind HumidityBarometerVisibility
12:00 AM
Aug 28
46 °FClear.2 mph93%30.09 "Hg10 mi
11:00 PM
Aug 27
46 °FClear.3 mph93%30.07 "Hg10 mi
10:00 PM50 °FClear.5 mph88%30.07 "Hg10 mi
9:00 PM52 °FClear.5 mph77%30.07 "Hg10 mi
8:00 PM52 °FClear.5 mph72%30.07 "Hg10 mi
7:00 PM50 °FClear.2 mph76%30.07 "Hg10 mi
6:00 PM54 °FClear.5 mph63%30.04 "Hg10 mi
5:00 PM63 °FClear.3 mph42%30.04 "Hg10 mi
4:00 PM66 °FSunny.5 mph40%30.04 "Hg10 mi
3:00 PM66 °FSunny.5 mph37%30.04 "Hg10 mi
2:00 PM66 °FSunny.5 mph40%30.07 "Hg10 mi
1:00 PM64 °FSunny.6 mph40%30.09 "Hg10 mi
12:00 PM63 °FSunny.7 mph42%30.12 "Hg10 mi
11:00 AM61 °FSunny.6 mph48%30.15 "Hg10 mi
10:00 AM57 °FSunny.8 mph59%30.18 "Hg10 mi
9:00 AM55 °FSunny.9 mph63%30.21 "Hg10 mi
8:00 AM50 °FSunny.5 mph82%30.21 "Hg10 mi
7:00 AM45 °FSunny.No wind93%30.18 "Hg10 mi
6:00 AM37 °FSunny.No wind100%30.18 "Hg10 mi
5:00 AM39 °FSunny.2 mph100%30.15 "Hg10 mi
4:00 AM43 °FClear.5 mph87%30.15 "Hg10 mi
3:00 AM43 °FClear.3 mph93%30.15 "Hg10 mi
2:00 AM45 °FClear.2 mph87%30.15 "Hg10 mi
1:00 AM46 °FClear.3 mph82%30.15 "Hg10 mi
Weather by CustomWeather, © 2014

See weather overviewHow to use our weather pages